RH
87 90 90 89 91 92 90 82 95 97 89 98 98 98 91 81 81 79 78 57 40 44 46 53 92 57 63 44 44 61 51 37 52 75 47 46 50 58 54 57 50 39 34 29
88 90 90 89 91 84 85 73 95 97 93 98 97 90 89 85 85 87 83 72 41 39 42 51 80 53 43 54 53 49 41 42 56 57 51 42 54 50 47 39 36 41 40 32
90 90 91 90 92 90 81 79 98 100 99 94 95 94 92 94 80 77 82 74 51 41 44 47 65 64 59 59 52 64 54 43 38 47 40 39 53 48 42 44 47 40 36 30
90 90 91 91 92 94 86 76 77 80 97 95 94 90 87 88 93 87 90 81 53 43 46 65 60 62 66 63 63 58 51 46 41 40 42 37 41 47 43 45 40 42 34 34
89 90 91 92 93 94 92 68 73 72 74 80 90 95 88 89 83 86 86 91 55 43 43 56 66 64 60 65 58 58 48 50 42 42 45 42 43 38 40 43 41 37 33 32
90 90 91 92 93 92 91 83 70 60 60 59 94 92 92 91 78 88 68 67 55 56 46 47 43 44 48 50 57 59 50 49 46 49 40 44 50 42 41 35 32 32 38 30
91 91 91 92 94 91 78 76 64 66 54 56 76 73 88 94 91 84 58 56 52 60 41 43 43 45 49 46 48 43 51 45 44 47 41 81 37 36 32 37 32 30 30 32
90 91 90 91 92 94 90 88 70 70 63 56 58 69 82 89 88 82 68 68 68 46 51 57 76 83 86 77 64 48 67 57 59 51 45 38 34 42 39 44 40 35 35 35
92 90 89 90 91 94 92 92 74 68 64 52 57 62 74 86 94 89 82 68 74 71 68 76 98 98 90 78 92 58 61 83 74 71 66 53 33 40 33 34 37 37 35 42
92 89 89 89 92 94 92 92 76 71 69 60 56 52 55 54 89 94 86 76 88 85 86 89 91 90 60 75 88 85 61 70 74 83 86 37 39 40 39 41 41 47 42 45
94 89 88 89 93 94 95 95 82 76 72 73 83 68 55 52 57 85 89 80 84 94 91 92 73 82 63 51 53 65 62 66 73 76 63 63 43 43 41 46 52 50 50 48
92 88 88 89 93 95 95 99 85 84 81 81 85 78 74 68 66 60 84 81 68 83 93 83 73 62 65 54 52 54 52 48 42 43 44 55 53 51 52 46 50 50 49 48
90 89 88 90 92 93 95 98 95 93 90 85 80 78 72 68 76 68 61 78 67 70 65 74 75 67 59 58 57 55 54 54 48 52 57 57 55 53 48 45 49 48 48 50
90 88 89 90 92 93 97 98 92 89 85 84 79 70 74 70 68 68 62 61 65 62 61 73 75 67 66 63 56 51 49 53 55 64 63 57 54 49 52 54 53 54 53 52
87 88 89 89 92 93 97 98 97 90 85 85 85 76 74 72 67 66 64 62 64 64 74 75 78 75 75 78 67 62 53 50 47 42 45 44 47 51 52 55 58 55 58 63
88 90 90 90 92 97 97 99 99 97 92 89 98 79 77 74 71 72 74 73 71 73 78 85 82 79 66 82 70 54 51 53 47 45 45 54 48 53 54 58 62 61 58 61
92 90 91 92 95 98 98 96 97 98 97 93 99 99 79 74 76 78 74 74 82 78 83 83 80 79 69 70 66 47 56 54 58 55 58 66 57 60 60 63 66 69 69 68
91 90 93 96 94 96 98 96 91 92 94 90 100 100 95 77 91 88 81 82 80 88 86 84 77 83 73 79 60 58 64 63 61 58 62 52 60 67 78 77 78 78 70 68
91 94 96 96 94 98 98 91 87 92 88 96 96 100 100 80 95 92 89 91 95 91 86 83 78 80 94 73 60 62 68 67 71 82 85 86 86 94 94 88 74 61 64 68
95 91 94 100 98 90 92 85 85 97 97 92 92 84 99 90 91 96 90 91 98 100 98 94 98 91 69 65 59 58 66 70 76 90 98 99 100 99 84 66 58 55 60 67
93 96 98 99 88 83 89 99 96 90 100 89 89 80 93 86 92 92 86 97 98 100 88 93 91 91 77 78 78 76 78 73 68 64 66 63 64 68 62 63 64 67 71 74
88 94 94 91 86 92 94 96 99 98 93 96 93 90 82 86 82 89 86 97 90 96 81 94 92 74 75 76 78 74 69 67 62 59 56 45 47 49 54 61 68 71 72 77
91 93 100 90 99 98 94 99 96 98 99 100 99 99 87 83 80 89 82 91 89 82 95 86 79 74 76 76 79 80 69 56 54 54 54 54 63 63 61 65 69 72 75 76
98 100 100 99 99 92 89 85 94 88 99 100 96 99 93 86 92 82 90 83 79 89 93 83 62 71 70 73 82 74 64 55 56 58 58 62 62 64 64 64 69 70 70 71
100 99 98 100 94 98 95 96 99 99 96 94 96 97 84 94 92 80 88 96 91 78 77 73 77 80 78 77 81 73 63 62 60 54 53 54 53 54 55 57 63 65 64 60
100 100 96 94 96 99 97 98 100 99 87 90 91 96 94 97 89 92 93 85 86 78 89 79 77 69 64 68 72 62 60 53 53 54 54 56 56 55 56 55 52 50 51 53
100 97 82 88 93 94 90 85 96 87 85 93 92 89 90 93 97 95 82 87 82 86 81 77 80 74 64 56 53 53 53 53 54 56 57 59 64 65 62 62 62 52 46 46
Wind_Speed
12 13 11 10 10 10 9 5 3 8 11 5 3 5 6 6 11 15 13 10 9 15 18 14 8 15 9 21 11 10 8 5 5 6 2 10 10 12 11 5 6 1 4 3
12 14 12 11 12 17 4 4 2 6 5 5 6 6 8 9 8 12 11 11 12 12 14 10 10 15 15 19 17 11 11 7 8 6 3 2 6 11 15 11 3 10 8 4
14 15 13 11 12 18 3 3 4 3 4 2 2 8 9 12 13 10 11 10 11 15 14 10 13 11 9 20 20 17 2 4 11 10 6 11 13 19 17 18 12 9 11 7
16 15 13 11 13 17 3 4 4 5 6 10 12 6 4 8 6 6 9 3 13 17 12 12 13 13 10 15 19 11 5 5 7 3 3 15 19 19 22 23 21 15 14 18
16 17 15 13 13 17 2 4 4 2 3 9 14 13 10 16 11 7 8 9 16 17 15 13 15 11 10 9 17 17 10 3 3 2 1 8 11 19 21 24 22 24 18 16
16 17 15 14 13 11 2 1 1 2 3 5 5 4 5 10 11 7 7 15 16 15 11 7 11 13 8 8 14 18 12 6 4 3 3 4 8 19 19 20 21 21 21 19
15 18 16 15 16 13 2 2 2 4 5 6 5 4 6 5 10 2 1 13 16 2 7 13 12 7 9 11 8 10 12 7 1 1 5 3 1 2 16 22 18 19 17 5
17 17 17 15 15 20 2 2 3 3 5 2 3 5 3 4 4 4 4 4 2 1 3 9 6 3 4 3 5 3 3 2 4 4 8 6 4 5 7 12 14 14 16 8
17 17 16 15 14 15 3 2 2 2 3 2 2 4 5 3 2 2 3 3 3 2 2 3 4 4 6 6 2 3 7 2 1 2 2 5 3 3 5 6 8 13 14 16
14 17 15 14 13 14 4 2 5 2 3 0 2 3 6 5 4 4 2 1 2 3 1 3 2 3 1 10 9 6 5 4 10 4 3 7 2 5 5 6 1 9 13 15
13 16 15 13 13 13 5 1 7 3 3 1 1 1 2 4 4 6 4 3 2 1 4 4 3 3 5 4 7 11 9 7 5 4 7 10 5 5 6 4 9 12 14 12
17 18 16 14 13 12 9 2 3 2 2 2 1 1 2 2 1 5 2 1 6 5 4 1 2 3 3 5 6 2 7 4 4 7 3 3 1 3 1 8 13 9 13 11
19 17 15 14 14 12 11 3 5 2 2 1 2 2 1 1 3 3 4 3 5 2 1 4 2 3 3 6 4 4 2 3 3 5 2 1 1 4 6 9 11 11 12 11
18 18 16 14 13 12 10 3 4 1 2 2 2 0 1 5 5 3 1 3 6 6 2 2 3 2 2 2 2 1 2 9 6 2 1 4 3 7 10 12 12 13 9 8
18 17 16 13 11 10 5 2 3 1 1 2 3 1 3 5 3 5 6 7 5 2 3 2 2 3 4 1 0 3 7 7 6 3 13 2 14 12 13 14 12 11 12 8
16 17 15 13 12 11 3 2 3 3 2 3 4 2 2 4 6 9 8 4 3 2 2 3 2 1 2 4 4 2 7 5 2 3 10 3 15 13 8 12 10 8 8 7
16 17 14 12 11 3 2 1 2 5 2 3 3 2 1 2 2 2 2 3 3 2 3 2 2 2 2 1 4 4 10 7 5 11 13 9 12 8 10 11 10 10 9 7
20 17 14 11 12 9 2 1 3 4 4 2 4 1 2 1 2 2 3 2 1 4 2 2 2 3 1 5 7 4 9 9 9 9 4 7 13 13 11 10 9 9 7 6
21 20 19 5 1 3 3 6 4 1 3 4 2 5 4 2 2 1 2 1 2 1 1 1 3 3 7 7 9 14 14 12 14 8 9 10 11 10 9 8 7 8 6 6
26 7 3 3 2 5 7 1 2 3 1 3 3 1 3 1 1 2 2 3 2 2 1 0 3 5 5 4 5 10 14 13 16 14 6 7 6 9 10 8 7 6 7 7
3 4 3 2 1 2 3 2 2 1 1 2 3 3 5 0 3 4 1 2 0 3 2 2 2 6 4 1 6 8 11 14 11 7 8 10 13 13 10 8 6 6 6 6
7 9 6 3 3 3 4 3 1 4 6 4 5 4 4 2 0 4 1 3 1 3 2 2 5 3 2 4 7 11 12 13 8 7 12 11 11 10 9 8 7 6 5 5
3 6 5 4 1 4 9 10 5 5 6 6 5 5 4 3 2 4 2 3 2 3 3 5 5 1 2 4 6 10 11 11 11 12 10 12 10 8 6 7 4 5 4 4
4 4 8 7 7 8 6 5 4 3 4 10 7 5 4 2 3 3 4 2 3 3 4 7 1 3 7 6 6 12 12 11 12 11 10 10 9 8 6 6 5 5 4 4
3 3 6 5 3 3 2 1 4 2 8 7 6 5 4 3 4 2 4 4 5 6 5 2 1 5 8 10 11 12 11 9 8 8 9 8 7 7 6 4 4 3 3 4
2 3 4 3 3 2 3 3 3 1 8 3 3 5 4 3 5 5 7 7 8 4 3 2 5 8 8 10 10 10 9 9 8 7 6 7 6 6 5 4 3 3 3 4
2 2 3 2 1 3 3 3 3 2 6 3 3 5 3 5 4 5 5 6 2 2 2 4 6 9 9 10 9 9 8 8 7 6 6 5 6 6 5 5 3 4 4 5
Wind_Direction
208 198 207 220 202 150 148 157 229 145 150 157 194 219 205 221 224 183 203 253 193 191 186 184 193 200 209 194 198 189 228 215 145 152 67 181 173 170 186 206 174 254 338 116
197 192 199 215 178 158 152 201 167 158 186 205 203 223 233 231 246 178 186 212 193 177 180 179 217 209 209 187 189 196 182 188 137 143 144 125 197 188 203 225 319 202 215 162
189 192 191 205 188 186 197 175 168 130 236 291 251 221 248 236 210 219 217 182 177 159 177 216 189 222 171 189 197 208 262 202 218 196 195 162 192 200 208 201 223 211 225 229
185 192 188 192 188 174 179 194 215 170 187 231 236 226 260 264 175 215 187 192 181 173 175 196 187 172 154 188 205 206 244 245 211 239 154 187 191 194 199 210 218 226 239 231
185 189 186 190 185 165 181 196 198 175 256 212 223 223 230 207 223 178 202 235 189 186 178 196 181 166 177 173 201 204 225 220 187 163 172 212 209 218 212 216 224 232 248 247
185 188 187 188 182 159 181 164 209 249 204 188 189 206 213 207 178 221 257 200 179 193 197 180 185 171 146 181 183 193 207 217 208 209 122 161 246 222 213 219 224 224 232 242
206 184 189 190 183 181 187 172 168 200 256 218 201 233 220 203 170 159 42 170 169 134 116 118 106 127 91 88 66 200 190 207 229 98 142 238 315 8 226 218 226 223 242 228
209 187 188 192 192 190 176 150 208 215 260 241 218 155 157 97 58 56 72 33 2 252 221 128 106 61 53 29 47 53 107 127 154 201 214 312 224 192 169 186 237 220 228 172
188 188 190 190 196 194 164 169 162 213 282 230 10 131 183 142 128 88 37 42 320 25 65 96 137 173 132 167 179 38 104 207 237 160 251 234 42 153 169 167 255 181 174 154
259 188 191 187 196 189 165 179 183 188 236 220 188 206 182 138 105 78 110 134 65 16 107 88 135 147 113 158 164 154 143 149 210 155 233 283 116 134 158 191 63 146 153 147
238 190 192 186 195 186 166 130 190 230 218 288 242 306 196 139 166 146 160 138 6 24 78 157 152 168 186 156 150 167 171 161 181 176 220 256 138 134 211 91 118 132 128 126
298 189 190 185 191 188 172 169 168 184 241 -0 287 21 310 304 356 116 190 36 153 172 118 168 118 154 170 164 181 235 183 195 190 211 207 29 1 338 51 150 134 128 120 123
306 187 187 183 186 193 180 145 148 177 164 163 218 174 28 349 8 313 144 192 168 180 8 154 149 193 188 170 202 120 200 167 183 181 165 334 181 109 123 127 114 116 119 125
304 186 183 181 184 193 179 174 181 214 127 172 122 293 30 329 326 211 260 122 104 107 152 139 153 156 236 164 84 192 81 157 151 103 136 132 174 155 132 118 115 112 106 118
293 187 178 177 177 188 180 162 202 252 280 127 133 151 32 2 53 99 124 126 116 139 132 128 125 108 152 66 139 192 191 157 188 196 174 179 168 153 146 136 135 134 130 122
272 178 171 171 171 160 157 211 192 177 211 128 152 28 27 30 70 75 63 64 82 85 99 103 109 75 238 169 199 173 176 190 223 137 147 81 139 140 141 128 130 119 116 117
201 166 161 162 170 148 186 235 104 142 128 105 98 151 14 338 35 47 48 43 58 47 101 95 123 127 201 182 206 171 180 171 126 128 115 111 156 153 139 127 121 110 101 103
159 151 144 139 125 109 141 141 133 146 112 88 117 153 154 312 93 105 344 70 72 32 90 131 152 139 168 239 223 156 149 137 139 144 8 146 122 120 117 119 124 119 126 130
145 130 122 120 113 141 177 137 103 97 154 132 119 144 180 152 95 99 74 358 85 337 110 134 216 167 218 218 190 179 171 168 156 104 97 112 120 123 127 128 140 141 153 165
131 115 134 140 194 121 112 64 157 34 15 44 103 111 125 107 113 71 88 4 102 150 82 283 229 248 257 228 223 173 167 143 137 121 114 114 117 148 159 165 156 157 168 172
117 120 104 59 109 83 39 71 122 145 327 162 120 138 127 270 127 123 314 138 54 174 159 231 259 266 243 181 159 144 139 152 155 148 139 157 152 156 154 153 154 155 163 174
150 112 106 101 82 77 127 167 135 215 206 150 147 132 116 120 144 103 36 108 177 182 122 217 249 253 42 139 135 139 141 150 130 140 134 135 134 139 135 138 154 164 152 148
103 76 100 147 125 166 187 181 190 200 172 168 159 129 120 136 84 80 122 134 149 126 193 235 240 61 124 134 119 112 116 110 120 110 106 111 110 111 123 129 112 121 130 141
74 138 141 197 186 210 182 181 163 133 144 141 126 103 106 113 98 140 120 95 157 182 232 235 191 167 146 133 120 130 127 125 119 115 119 121 128 124 113 108 127 142 159 165
134 157 181 183 92 53 76 124 118 151 143 134 113 83 96 106 120 86 125 158 213 218 231 230 159 155 145 141 144 136 130 128 124 129 126 131 136 131 118 109 120 135 137 172
80 83 103 89 96 142 158 149 123 155 148 100 67 116 113 132 141 158 195 178 218 215 199 143 133 141 128 135 138 126 119 126 126 131 138 134 131 132 122 114 128 161 182 170
105 96 75 109 77 145 162 144 126 143 161 118 127 135 133 117 140 193 195 211 211 149 154 144 136 130 122 114 110 117 123 126 130 129 126 115 113 119 139 152 111 112 105 102